Tracking 20066 objects as of 7-Dec-2019
HD Live streaming from Space Station
objects crossing your sky now

COSMOS 2251 DEB

Track COSMOS 2251 DEB now!
10-day predictions


NORAD ID: 35984
Int'l Code: 1993-036AWA
Perigee: 499.5 km
Apogee: 669.7 km
Inclination: 74.0 °
Period: 96.2 minutes
Semi major axis: 6955 km
RCS: 0.0123 m2 (small)
Launch date: June 16, 1993
Source: Commonwealth of Independent States (former USSR) (CIS)
Launch site: PLESETSK MISSILE AND SPACE COMPLEX (PKMTR)

Note: This is SATELLITE DEBRIS
aabbcc
Your satellite tracking list
Your tracking list is empty




NASA's NSSDC Master Catalog

Two Line Element Set (TLE):
1 35984U 93036AWA 19337.35331019 +.00003902 +00000-0 +29748-3 0  9995
2 35984 073.9721 313.2145 0122325 059.0255 302.2880 14.96585389313570
Source of the keplerian elements: AFSPC